QPF
0.00 0.00 0.00 0.00 0.00 0.00 0.00 0.00 0.00 0.00 0.02 0.03 0.04 0.06 0.08 0.08 0.05 0.05 0.03 0.01 0.01 0.00 0.00 0.00 0.00 0.00 0.01
0.00 0.00 0.00 0.00 0.00 0.00 0.00 0.00 0.00 0.00 0.00 0.00 0.00 0.00 0.00 0.01 0.01 0.01 0.00 0.00 0.00 0.00 0.00 0.00 0.00 0.00 0.00
0.00 0.00 0.00 0.00 0.00 0.00 0.00 0.00 0.00 0.00 0.00 0.00 0.00 0.00 0.00 0.00 0.00 0.00 0.00 0.00 0.00 0.00 0.00 0.00 0.00 0.00 0.00
0.00 0.00 0.00 0.00 0.00 0.00 0.00 0.00 0.00 0.00 0.00 0.00 0.00 0.00 0.00 0.00 0.00 0.00 0.00 0.00 0.00 0.00 0.00 0.00 0.00 0.00 0.00
0.00 0.00 0.00 0.00 0.00 0.00 0.00 0.00 0.00 0.00 0.00 0.00 0.00 0.00 0.00 0.00 0.00 0.00 0.00 0.00 0.00 0.00 0.00 0.00 0.00 0.00 0.00
0.00 0.00 0.00 0.00 0.00 0.00 0.00 0.00 0.00 0.00 0.00 0.00 0.00 0.00 0.00 0.00 0.00 0.00 0.00 0.00 0.00 0.00 0.00 0.00 0.00 0.00 0.00
0.00 0.00 0.00 0.00 0.00 0.00 0.00 0.00 0.00 0.00 0.00 0.00 0.00 0.00 0.00 0.00 0.00 0.00 0.00 0.00 0.00 0.00 0.00 0.00 0.00 0.00 0.00
0.00 0.00 0.00 0.00 0.00 0.00 0.01 0.00 0.00 0.00 0.00 0.00 0.00 0.00 0.00 0.00 0.00 0.00 0.00 0.00 0.00 0.00 0.00 0.00 0.00 0.00 0.00
0.00 0.00 0.00 0.00 0.00 0.00 0.00 0.00 0.00 0.00 0.00 0.00 0.00 0.00 0.00 0.00 0.00 0.00 0.00 0.00 0.00 0.00 0.00 0.00 0.00 0.00 0.00
0.00 0.00 0.00 0.00 0.00 0.00 0.00 0.00 0.00 0.00 0.00 0.00 0.00 0.00 0.00 0.00 0.00 0.00 0.00 0.00 0.00 0.00 0.00 0.00 0.00 0.00 0.00
0.00 0.00 0.00 0.00 0.00 0.00 0.00 0.00 0.00 0.00 0.00 0.00 0.00 0.00 0.00 0.00 0.00 0.00 0.00 0.00 0.00 0.00 0.00 0.00 0.00 0.00 0.00
0.00 0.00 0.00 0.00 0.00 0.00 0.00 0.00 0.00 0.00 0.00 0.00 0.01 0.00 0.01 0.01 0.00 0.00 0.00 0.00 0.00 0.00 0.00 0.00 0.00 0.00 0.00
0.00 0.00 0.00 0.00 0.00 0.00 0.00 0.00 0.00 0.00 0.00 0.00 0.00 0.00 0.01 0.01 0.00 0.00 0.00 0.00 0.00 0.00 0.00 0.00 0.00 0.00 0.00
0.00 0.00 0.00 0.00 0.00 0.00 0.00 0.00 0.00 0.00 0.00 0.00 0.00 0.00 0.00 0.00 0.00 0.00 0.00 0.00 0.00 0.00 0.00 0.00 0.00 0.00 0.00
0.00 0.00 0.00 0.00 0.00 0.00 0.00 0.00 0.00 0.00 0.00 0.00 0.00 0.00 0.00 0.00 0.01 0.00 0.00 0.00 0.00 0.00 0.00 0.00 0.00 0.00 0.00
0.00 0.00 0.00 0.00 0.00 0.00 0.00 0.00 0.01 0.00 0.00 0.00 0.00 0.00 0.00 0.00 0.00 0.00 0.00 0.00 0.00 0.00 0.00 0.00 0.00 0.00 0.00
0.00 0.00 0.00 0.00 0.00 0.00 0.00 0.00 0.01 0.00 0.00 0.00 0.00 0.01 0.02 0.01 0.00 0.00 0.00 0.00 0.00 0.00 0.00 0.00 0.00 0.00 0.00
MSLP
1013.24 1013.41 1013.32 1013.03 1012.79 1012.37 1012.14 1012.07 1011.94 1011.51 1010.80 1010.87 1010.20 1010.26 1009.24 1008.68 1009.22 1009.46 1009.49 1009.21 1009.42 1008.85 1008.22 1007.88 1007.53 1007.25 1007.22
1013.40 1013.44 1013.54 1013.46 1013.38 1012.99 1012.45 1012.17 1012.06 1011.76 1011.39 1010.76 1010.67 1010.48 1010.00 1009.80 1009.78 1009.61 1009.73 1010.22 1009.48 1008.49 1008.61 1008.29 1008.00 1007.71 1007.36
1013.72 1013.38 1013.17 1013.09 1012.94 1012.70 1012.50 1012.20 1011.89 1011.48 1011.34 1011.14 1010.70 1010.28 1010.11 1009.87 1009.91 1010.00 1010.00 1010.50 1009.78 1008.60 1008.65 1008.59 1008.49 1008.00 1007.64
1014.01 1013.58 1013.26 1012.82 1012.66 1012.54 1012.26 1011.91 1011.60 1011.22 1011.23 1010.89 1010.78 1010.71 1010.47 1010.19 1009.98 1010.21 1010.16 1010.25 1009.95 1009.45 1008.56 1008.77 1008.49 1008.11 1007.91
1014.22 1013.95 1013.66 1013.10 1012.96 1012.85 1012.66 1012.39 1011.94 1011.48 1011.39 1011.27 1011.27 1011.02 1010.71 1010.23 1010.10 1010.36 1010.23 1010.08 1009.95 1009.43 1009.02 1008.78 1008.40 1007.95 1007.89
1014.45 1013.98 1013.74 1013.40 1013.26 1013.34 1013.27 1012.95 1012.40 1011.77 1011.70 1011.60 1011.41 1011.07 1010.60 1010.43 1010.23 1010.28 1010.22 1010.16 1010.07 1009.65 1009.06 1008.53 1007.79 1007.71 1007.98
1014.48 1014.09 1013.63 1013.49 1013.49 1013.39 1013.25 1013.02 1012.83 1012.35 1012.02 1011.56 1011.42 1011.07 1010.76 1010.46 1010.27 1010.09 1009.84 1009.83 1009.94 1009.35 1008.93 1008.48 1007.85 1007.95 1007.65
1014.15 1013.95 1013.75 1013.50 1013.33 1013.12 1013.03 1012.94 1012.69 1012.05 1011.65 1011.37 1011.17 1010.99 1010.62 1010.36 1010.09 1009.91 1009.91 1009.76 1009.21 1008.66 1008.13 1007.90 1007.63 1007.48 1007.12
1013.66 1013.57 1013.39 1013.14 1012.90 1012.79 1012.76 1012.74 1012.24 1011.80 1011.55 1011.42 1011.01 1010.86 1010.74 1010.38 1009.84 1009.54 1009.49 1009.13 1008.80 1008.32 1007.95 1007.82 1007.50 1007.17 1006.85
1013.53 1013.09 1012.67 1012.51 1012.36 1012.42 1012.48 1012.49 1012.32 1011.71 1011.17 1011.47 1011.29 1011.40 1010.74 1009.94 1009.81 1009.69 1009.30 1008.97 1008.52 1007.87 1007.69 1007.58 1007.06 1007.13 1006.67
1013.11 1012.57 1012.34 1012.26 1012.12 1012.05 1012.07 1012.20 1012.16 1011.85 1011.41 1011.36 1011.09 1011.19 1011.05 1010.25 1009.49 1009.21 1008.94 1008.30 1008.05 1007.74 1007.35 1007.02 1006.62 1006.13 1005.70
1012.82 1012.52 1012.31 1012.28 1012.10 1011.99 1011.92 1011.96 1011.94 1011.75 1011.54 1011.51 1011.20 1011.10 1010.77 1010.17 1009.45 1008.58 1008.32 1007.98 1007.66 1007.06 1006.76 1006.43 1005.96 1005.86 1005.53
1012.62 1012.36 1012.35 1012.26 1012.01 1011.90 1011.73 1011.49 1011.29 1011.05 1010.87 1010.84 1010.81 1010.65 1010.59 1010.04 1009.35 1008.72 1008.33 1007.65 1007.38 1006.84 1006.44 1006.15 1005.77 1005.35 1005.16
1012.48 1012.28 1012.17 1012.04 1011.77 1011.57 1011.36 1011.12 1010.92 1010.52 1010.26 1010.11 1010.00 1009.98 1009.76 1009.64 1009.38 1008.58 1008.44 1008.05 1007.04 1006.81 1006.39 1005.75 1005.28 1005.00 1004.70
1012.22 1012.11 1012.06 1011.83 1011.48 1011.26 1011.05 1010.84 1010.59 1010.14 1009.79 1009.62 1009.34 1009.10 1009.01 1009.02 1008.69 1008.08 1007.47 1007.23 1006.81 1006.40 1006.11 1005.35 1004.76 1004.44 1004.21
1011.98 1011.99 1011.85 1011.56 1011.29 1011.12 1010.96 1010.67 1010.24 1009.78 1009.38 1009.13 1008.91 1008.59 1008.29 1007.96 1007.72 1007.12 1006.76 1006.35 1006.05 1005.77 1005.44 1005.08 1004.42 1003.97 1003.66
1011.79 1011.68 1011.47 1011.14 1010.91 1010.66 1010.34 1009.99 1009.56 1009.15 1008.70 1008.48 1008.31 1008.19 1007.65 1006.86 1006.31 1005.99 1005.64 1005.46 1005.35 1005.00 1004.65 1004.37 1003.83 1003.03 1002.81
Thickness
5465 5461 5461 5462 5464 5469 5471 5473 5474 5480 5490 5494 5504 5506 5520 5527 5525 5528 5532 5539 5543 5551 5562 5570 5578 5585 5589
5456 5453 5450 5450 5450 5453 5458 5462 5463 5466 5471 5481 5485 5489 5498 5503 5505 5512 5515 5515 5526 5540 5543 5552 5558 5565 5573
5444 5446 5446 5446 5446 5448 5449 5450 5452 5455 5456 5460 5466 5474 5480 5484 5487 5492 5496 5495 5506 5522 5527 5532 5538 5547 5557
5432 5434 5434 5437 5437 5436 5438 5442 5443 5444 5443 5445 5447 5451 5456 5461 5468 5469 5473 5478 5486 5497 5510 5513 5521 5532 5539
5417 5418 5418 5421 5421 5420 5420 5420 5422 5424 5423 5424 5424 5428 5432 5439 5444 5446 5451 5457 5464 5475 5485 5493 5504 5515 5521
5402 5404 5403 5405 5405 5401 5398 5398 5400 5402 5400 5399 5403 5407 5411 5415 5420 5424 5431 5436 5442 5453 5465 5476 5490 5496 5500
5387 5388 5389 5388 5385 5383 5381 5379 5376 5376 5377 5380 5379 5385 5390 5392 5397 5404 5411 5416 5421 5433 5445 5454 5468 5475 5485
5377 5375 5374 5372 5371 5369 5366 5363 5360 5361 5362 5364 5363 5365 5370 5373 5377 5382 5386 5393 5403 5416 5427 5436 5446 5457 5468
5366 5364 5362 5360 5357 5356 5351 5348 5348 5348 5345 5344 5347 5348 5349 5351 5357 5363 5365 5374 5383 5395 5405 5413 5425 5436 5447
5354 5354 5353 5350 5346 5342 5337 5332 5328 5330 5329 5322 5324 5321 5329 5336 5336 5336 5343 5349 5361 5374 5385 5393 5406 5415 5427
5345 5346 5344 5339 5335 5331 5325 5318 5312 5309 5306 5305 5305 5303 5305 5316 5322 5320 5324 5334 5343 5351 5363 5376 5388 5401 5415
5336 5334 5331 5327 5325 5322 5317 5311 5305 5301 5296 5290 5289 5286 5289 5294 5300 5308 5309 5316 5324 5336 5346 5357 5371 5381 5393
5327 5325 5320 5318 5316 5312 5308 5305 5300 5295 5290 5284 5280 5278 5275 5278 5284 5287 5290 5298 5305 5315 5327 5338 5349 5362 5373
5318 5315 5313 5309 5308 5305 5302 5297 5292 5288 5281 5275 5271 5269 5268 5266 5267 5272 5268 5276 5286 5294 5304 5318 5330 5340 5352
5311 5309 5306 5304 5301 5297 5292 5288 5283 5279 5272 5265 5263 5262 5259 5256 5256 5258 5261 5264 5268 5278 5288 5302 5312 5321 5332
5305 5302 5299 5297 5294 5288 5283 5278 5275 5272 5268 5261 5257 5255 5253 5252 5248 5252 5253 5256 5260 5266 5276 5286 5295 5301 5313
5298 5296 5293 5291 5288 5283 5279 5275 5272 5269 5266 5261 5256 5251 5250 5251 5250 5249 5252 5252 5255 5259 5262 5269 5281 5289 5298